Location: *
(5.5500°N, 0.2000°W)
Time: 07:44:45
(UTC+00:00)

Daily predictions for brighter satellites

Satellite Brightness Start Highest point End
(mag) Time Altitude Azimuth Time Altitude Azimuth Time Altitude Azimuth
Lacrosse 4 Rocket 2.5 17:56:57 10° SW 18:01:00 48° WNW 18:04:58 10° N
DELTA 2 R/B (1) 3.6 17:59:11 10° SW 18:04:47 86° SE 18:10:25 10° NE
Cosmos 1818 4.0 18:00:03 10° N 18:05:04 40° ENE 18:10:05 10° SE
BREEZE-M R/B 4.4 17:54:36 10° SW 18:06:08 87° NW 18:11:08 10° NE
Cosmos 2278 3.7 18:03:10 10° SSW 18:08:49 82° ESE 18:14:28 10° NNE
Cosmos 2233 Rocket 4.1 18:03:26 10° N 18:09:43 89° E 18:15:57 10° S
Envisat 3.2 18:06:44 10° SSE 18:11:38 50° ENE 18:16:31 10° N
ARIANE 5 R/B 2.8 18:12:20 10° SW 18:14:10 25° SSE 18:17:32 10° ESE
Cosmos 1697 Rocket 3.3 18:09:37 10° SSW 18:15:12 62° WNW 18:20:46 10° N
ARIANE 5 DEB (SYLDA) 3.4 18:10:49 10° W 18:18:47 47° S 18:21:25 10° ESE
Cosmos 1238 Rocket 2.9 18:15:35 10° NNW 18:19:03 62° W 18:22:06 10° S
DMSP B5D1-3 4.5 18:14:25 10° NNE 18:19:33 73° ESE 18:24:40 10° S
Cosmos 1805 Rocket 3.7 18:17:20 10° N 18:21:33 49° E 18:25:49 10° SSE
Meteor 2-3 Rocket 4.3 18:17:06 10° NNW 18:22:46 65° W 18:28:25 10° S
CZ-4 R/B 2.0 18:19:57 10° SE 18:23:52 37° ENE 18:27:45 10° N
Cosmos 1464 Rocket 4.3 18:22:54 10° NNE 18:28:32 39° E 18:34:12 10° SSE
BLOCK DM-SL R/B 3.7 18:27:38 10° WSW 18:32:15 45° S 18:36:06 13° ESE
ARIANE 5 DEB (SYLDA) 3.4 18:30:57 10° SW 18:32:16 16° S 18:33:07 13° SSE
SeaSat 1 2.4 18:33:36 10° SSE 18:38:27 63° ENE 18:43:19 10° NNW
ARIANE 5 DEB (SYLDA) 4.0 18:32:03 10° WSW 18:40:38 44° S 18:44:39 14° ESE
Cosmos 1515 Rocket 3.5 18:39:53 10° S 18:44:18 66° E 18:48:41 10° NNE
Cosmos 1328 Rocket 4.3 18:44:03 10° SSW 18:48:23 55° W 18:52:43 10° N
CSL-04 Debris 4.1 18:46:15 10° SSE 18:51:40 63° ENE 18:57:03 10° N
Cosmos 1633 Rocket 3.3 18:49:11 11° NNE 18:53:17 45° E 18:57:31 10° SSE
ISS -1.2 18:55:56 10° SSE 18:56:23 12° SSE 18:56:23 12° SSE
Cosmos 1606 2.6 18:54:17 10° S 18:58:04 61° E 18:58:44 50° NE
H-2A R/B 2.8 18:56:13 10° W 18:58:31 16° NW 18:59:08 15° NNW
Cosmos 1151 Rocket 4.4 18:56:29 10° SSW 19:00:29 39° W 19:04:32 10° NNW
Cosmos 1666 Rocket 3.3 18:57:38 10° N 19:01:58 81° E 19:06:16 10° S
Centaur AC-64 3.4 19:00:02 10° W 19:02:35 37° N 19:03:53 30° NNE
Cosmos 1933 3.3 18:58:40 10° S 19:02:45 82° W 19:05:16 23° N
Aurora 2 Rocket 3.7 18:59:22 10° W 19:03:51 45° NNW 19:06:14 30° NNE
YAOGAN 1 2.6 19:00:14 10° S 19:04:33 78° W 19:08:51 10° NNW
SL-16 R/B 2.5 19:01:48 10° S 19:07:08 43° ESE 19:07:35 42° E
ATLAS 2AS CENTAUR R/B 4.4 19:05:14 10° SSE 19:08:18 17° SE 19:08:18 17° SE
Sich 1 4.0 19:06:33 10° NNW 19:10:44 47° W 19:14:59 10° SSW
CSL-04 Rocket 3.8 19:07:55 10° S 19:13:24 74° WSW 19:18:47 10° NNW
ATLAS 5 CENTAUR R/B 4.2 19:04:07 10° SW 19:15:49 40° WNW 19:19:00 15° N
Cosmos 2219 3.1 19:11:46 10° NNW 19:17:22 88° WSW 19:23:01 10° SSE
Hubble Space Telescope 1.7 19:13:52 10° W 19:17:44 39° NNW 19:17:45 39° NNW
Cosmos 1980 Rocket 4.0 19:13:07 10° SW 19:17:51 28° WNW 19:22:36 10° NNW
COSMOS 2455 3.5 19:13:02 10° S 19:17:39 35° SE 19:17:39 35° SE
Cosmos 2322 Rocket 2.5 19:14:07 10° S 19:18:55 46° ESE 19:18:55 46° ESE
Ariane H10-3 3.2 19:19:22 10° W 19:22:43 89° N 19:24:46 48° E
GPS 2-14 Rocket1 3.3 19:18:56 10° WNW 19:22:17 53° SW 19:22:17 53° SW
Cosmos 2034 Rocket 4.0 19:16:56 10° N 19:23:18 85° W 19:29:41 10° S
Meteor 1-26 Rocket 4.4 19:24:25 10° S 19:30:18 76° W 19:33:05 33° N
ARIANE 5 R/B 4.5 19:26:56 10° SW 19:30:20 27° SSE 19:30:46 26° SSE
Cosmos 2228 Rocket 4.3 19:30:51 10° SSW 19:34:57 39° W 19:36:17 31° NW
ARIANE 5 DEB (SYLDA) 4.4 19:30:21 10° WSW 19:36:11 32° SSW 19:36:11 32° SSW
ARIANE 5 R/B 2.6 19:25:08 10° W 19:36:23 69° SSW 19:36:23 69° SSW
ADEOS Rocket 3.2 19:38:00 34° NNW 19:40:27 60° WNW 19:45:54 10° SSW
Cosmos 2227 Rocket 4.2 19:35:36 10° NNW 19:47:34 - SSE 19:36:38 16° NNW
Cosmos 2297 Rocket 3.4 19:36:14 10° NNW 19:46:26 16° SSE 19:47:32 10° SSE
Atlas Centaur 2 4.2 19:37:48 10° SSW 19:43:02 21° SSE 19:43:02 21° SSE
Palapa 6 Rocket 4.1 19:39:31 10° WSW 19:42:28 44° WSW 19:42:28 44° WSW
CZ-3A R/B 4.3 20:17:50 10° WNW 20:56:40 55° SW 20:56:57 55° SW
